Previsão horária em Abikanda

Hoje, 18 Maio, Terça-feira

Tempo Temperatura Precipitação Vento Pressão Humidade
00:00 +19°C° 0 mm 2 m/s 665 mmHg 30%
01:00 +18°C° 0 mm 2 m/s 665 mmHg 31%
02:00 +18°C° 0 mm 3 m/s 665 mmHg 32%
03:00 +18°C° 0 mm 3 m/s 664 mmHg 34%
04:00 +18°C° 0 mm 3 m/s 664 mmHg 35%
05:00 +20°C° 0 mm 3 m/s 665 mmHg 33%
06:00 +23°C° 0 mm 2 m/s 665 mmHg 30%
07:00 +25°C° 0 mm 1 m/s 666 mmHg 28%
08:00 +26°C° 0 mm 2 m/s 666 mmHg 26%
09:00 +27°C° 0 mm 3 m/s 666 mmHg 23%
10:00 +28°C° 0 mm 4 m/s 666 mmHg 21%
11:00 +28°C° 0 mm 4 m/s 666 mmHg 20%
12:00 +28°C° 0 mm 5 m/s 666 mmHg 20%
13:00 +29°C° 0 mm 5 m/s 666 mmHg 20%
14:00 +28°C° 0 mm 4 m/s 666 mmHg 19%
15:00 +28°C° 0 mm 4 m/s 665 mmHg 19%
16:00 +28°C° 0 mm 3 m/s 665 mmHg 18%
17:00 +26°C° 0 mm 2 m/s 665 mmHg 22%
18:00 +24°C° 0 mm 1 m/s 664 mmHg 26%
19:00 +22°C° 0 mm 1 m/s 664 mmHg 29%
20:00 +21°C° 0 mm 1 m/s 664 mmHg 28%
21:00 +21°C° 0 mm 1 m/s 664 mmHg 28%
22:00 +19°C° 0 mm 2 m/s 664 mmHg 27%
23:00 +19°C° 0 mm 2 m/s 664 mmHg 28%

Amanhã, 19 Maio, Quarta-feira

Tempo Temperatura Precipitação Vento Pressão Humidade
00:00 +19°C° 0 mm 2 m/s 663 mmHg 28%
01:00 +19°C° 0 mm 3 m/s 663 mmHg 29%
02:00 +18°C° 0 mm 3 m/s 663 mmHg 30%
03:00 +18°C° 0 mm 3 m/s 663 mmHg 31%
04:00 +18°C° 0 mm 3 m/s 663 mmHg 32%
05:00 +20°C° 0 mm 2 m/s 663 mmHg 30%
06:00 +23°C° 0 mm 1 m/s 664 mmHg 27%
07:00 +25°C° 0 mm 1 m/s 665 mmHg 25%
08:00 +26°C° 0 mm 1 m/s 665 mmHg 23%
09:00 +27°C° 0 mm 2 m/s 665 mmHg 20%
10:00 +28°C° 0 mm 3 m/s 665 mmHg 18%
11:00 +28°C° 0 mm 3 m/s 665 mmHg 17%
12:00 +28°C° 0 mm 3 m/s 665 mmHg 17%
13:00 +29°C° 0 mm 4 m/s 665 mmHg 17%
14:00 +29°C° 0 mm 3 m/s 665 mmHg 16%
15:00 +29°C° 0 mm 3 m/s 665 mmHg 16%
16:00 +28°C° 0 mm 2 m/s 665 mmHg 15%
17:00 +26°C° 0 mm 2 m/s 664 mmHg 18%
18:00 +24°C° 0 mm 1 m/s 664 mmHg 21%
19:00 +22°C° 0 mm 1 m/s 664 mmHg 24%
20:00 +22°C° 0 mm 1 m/s 664 mmHg 23%
21:00 +20°C° 0 mm 2 m/s 664 mmHg 22%
22:00 +20°C° 0 mm 2 m/s 664 mmHg 21%
23:00 +20°C° 0 mm 2 m/s 663 mmHg 22%

Depois de amanhã, 20 Maio, Quinta-feira

Tempo Temperatura Precipitação Vento Pressão Humidade
00:00 +20°C° 0 mm 3 m/s 663 mmHg 22%
01:00 +19°C° 0 mm 3 m/s 663 mmHg 23%
02:00 +19°C° 0 mm 3 m/s 663 mmHg 24%
03:00 +19°C° 0 mm 3 m/s 663 mmHg 25%
04:00 +19°C° 0 mm 3 m/s 663 mmHg 26%
05:00 +21°C° 0 mm 2 m/s 664 mmHg 24%
06:00 +24°C° 0 mm 1 m/s 665 mmHg 23%
07:00 +23°C° 0 mm 0 m/s 665 mmHg 21%
08:00 +26°C° 0 mm 1 m/s 665 mmHg 19%
09:00 +27°C° 0 mm 1 m/s 666 mmHg 17%
10:00 +28°C° 0 mm 2 m/s 666 mmHg 15%
11:00 +29°C° 0 mm 2 m/s 666 mmHg 15%
12:00 +29°C° 0 mm 2 m/s 666 mmHg 15%
13:00 +30°C° 0 mm 2 m/s 666 mmHg 15%
14:00 +29°C° 0 mm 3 m/s 666 mmHg 16%
15:00 +29°C° 0 mm 4 m/s 666 mmHg 16%
16:00 +29°C° 0 mm 4 m/s 666 mmHg 17%
17:00 +27°C° 0 mm 4 m/s 666 mmHg 22%
18:00 +25°C° 0 mm 4 m/s 666 mmHg 27%
19:00 +22°C° 0 mm 3 m/s 665 mmHg 32%
20:00 +21°C° 0 mm 3 m/s 665 mmHg 31%
21:00 +21°C° 0 mm 3 m/s 665 mmHg 31%
22:00 +20°C° 0 mm 3 m/s 665 mmHg 30%
23:00 +20°C° 0 mm 3 m/s 665 mmHg 30%

21 Maio, Sexta-feira

Tempo Temperatura Precipitação Vento Pressão Humidade
00:00 +20°C° 0 mm 2 m/s 665 mmHg 30%
01:00 +19°C° 0 mm 2 m/s 665 mmHg 30%
02:00 +19°C° 0 mm 2 m/s 665 mmHg 30%
03:00 +19°C° 0 mm 3 m/s 665 mmHg 29%
04:00 +19°C° 0 mm 3 m/s 665 mmHg 29%
05:00 +21°C° 0 mm 2 m/s 666 mmHg 27%
06:00 +24°C° 0 mm 1 m/s 666 mmHg 26%
07:00 +23°C° 0 mm 0 m/s 667 mmHg 24%
08:00 +26°C° 0 mm 1 m/s 667 mmHg 23%
09:00 +27°C° 0 mm 2 m/s 667 mmHg 22%
10:00 +28°C° 0 mm 3 m/s 667 mmHg 20%
11:00 +29°C° 0 mm 3 m/s 667 mmHg 20%
12:00 +29°C° 0 mm 4 m/s 667 mmHg 20%
13:00 +29°C° 0 mm 4 m/s 667 mmHg 20%
14:00 +28°C° 0 mm 4 m/s 667 mmHg 25%
15:00 +27°C° 0 mm 5 m/s 667 mmHg 30%
16:00 +24°C° 0 mm 6 m/s 667 mmHg 35%
17:00 +22°C° 0.1 mm 5 m/s 666 mmHg 41%
18:00 +21°C° 0.1 mm 4 m/s 666 mmHg 47%
19:00 +19°C° 0.1 mm 3 m/s 666 mmHg 54%
20:00 +19°C° 0 mm 3 m/s 666 mmHg 52%
21:00 +19°C° 0 mm 3 m/s 666 mmHg 50%
22:00 +19°C° 0 mm 3 m/s 666 mmHg 48%
23:00 +19°C° 0 mm 2 m/s 665 mmHg 47%

22 Maio, Sábado

Tempo Temperatura Precipitação Vento Pressão Humidade
00:00 +18°C° 0 mm 2 m/s 665 mmHg 47%
01:00 +18°C° 0 mm 2 m/s 665 mmHg 46%
02:00 +18°C° 0 mm 2 m/s 665 mmHg 47%
03:00 +17°C° 0 mm 2 m/s 665 mmHg 47%
04:00 +17°C° 0 mm 2 m/s 664 mmHg 47%
05:00 +19°C° 0 mm 2 m/s 665 mmHg 44%
06:00 +20°C° 0 mm 2 m/s 665 mmHg 41%
07:00 +23°C° 0 mm 2 m/s 666 mmHg 38%
08:00 +24°C° 0 mm 2 m/s 666 mmHg 36%
09:00 +25°C° 0 mm 2 m/s 666 mmHg 34%
10:00 +26°C° 0 mm 3 m/s 666 mmHg 32%
11:00 +26°C° 0.2 mm 3 m/s 666 mmHg 31%
12:00 +26°C° 0.2 mm 4 m/s 666 mmHg 30%
13:00 +27°C° 0.2 mm 4 m/s 666 mmHg 29%
14:00 +25°C° 0.5 mm 4 m/s 666 mmHg 31%
15:00 +23°C° 0.5 mm 4 m/s 666 mmHg 34%
16:00 +22°C° 0.5 mm 4 m/s 665 mmHg 37%
17:00 +21°C° 0 mm 4 m/s 665 mmHg 39%
18:00 +20°C° 0 mm 4 m/s 665 mmHg 41%
19:00 +19°C° 0 mm 4 m/s 664 mmHg 43%
20:00 +18°C° 0 mm 3 m/s 664 mmHg 41%
21:00 +18°C° 0 mm 3 m/s 664 mmHg 40%
22:00 +18°C° 0 mm 3 m/s 664 mmHg 38%
23:00 +18°C° 0 mm 3 m/s 664 mmHg 37%

23 Maio, Domingo

Tempo Temperatura Precipitação Vento Pressão Humidade
00:00 +17°C° 0 mm 3 m/s 663 mmHg 37%
01:00 +17°C° 0 mm 3 m/s 663 mmHg 36%
02:00 +17°C° 0 mm 3 m/s 663 mmHg 36%
03:00 +17°C° 0 mm 3 m/s 663 mmHg 36%
04:00 +17°C° 0 mm 3 m/s 663 mmHg 36%
05:00 +19°C° 0 mm 2 m/s 663 mmHg 34%
06:00 +21°C° 0 mm 1 m/s 664 mmHg 32%
07:00 +23°C° 0 mm 1 m/s 664 mmHg 30%
08:00 +24°C° 0 mm 1 m/s 664 mmHg 30%
09:00 +25°C° 0 mm 2 m/s 664 mmHg 29%
10:00 +26°C° 0 mm 3 m/s 665 mmHg 29%
11:00 +25°C° 0.2 mm 3 m/s 665 mmHg 32%
12:00 +25°C° 0.2 mm 4 m/s 665 mmHg 36%
13:00 +23°C° 0.2 mm 4 m/s 665 mmHg 39%
14:00 +22°C° 0.4 mm 4 m/s 665 mmHg 42%
15:00 +21°C° 0.4 mm 4 m/s 665 mmHg 44%
16:00 +21°C° 0.4 mm 5 m/s 665 mmHg 47%
17:00 +20°C° 0 mm 4 m/s 664 mmHg 47%
18:00 +19°C° 0 mm 4 m/s 664 mmHg 47%
19:00 +18°C° 0 mm 3 m/s 664 mmHg 48%
20:00 +18°C° 0 mm 3 m/s 664 mmHg 45%
21:00 +18°C° 0 mm 3 m/s 664 mmHg 41%
22:00 +18°C° 0 mm 3 m/s 664 mmHg 38%
23:00 +18°C° 0 mm 3 m/s 664 mmHg 38%
Mostrar mais

Necessitamos do seu Consentimento

A Meteoprog e os seus Fornecedores de Serviços podem armazenar e aceder a dados pessoais como cookies, identificadores do dispositivo ou outras tecnologias semelhantes existentes no seu dispositivo e processar estes dados para personalizar conteúdos e anúncios, assim como funcionalidades nas redes sociais e análise de tráfego.

  • Armazenar e/ou aceder a informações no seu dispositivo

    Os cookies, identificadores do dispositivo ou outras informações podem ser armazenados ou acedidos no seu dispositivo, para os fins acima indicados.

  • Anúncios e conteúdos personalizados, medição de anúncios e conteúdos, dados sobre o público-alvo e desenvolvimento de produtos

    Os anúncios e os conteúdos podem ser personalizados com base num perfil. Podem ser adicionados dados adicionais para uma maior personalização dos anúncios e dos conteúdos. A eficácia dos anúncios e dos conteúdos pode ser medida. Podem ser obtidas informações sobre o público que visualizou os anúncios e os conteúdos. Estes dados podem ser usados para desenvolver ou melhorar sistemas, softwares ou a experiência do utilizador.

Ao clicar em "Eu concordo”, permitirá o uso de cookies, identificadores do dispositivo e web beacons mencionados ou outras tecnologias semelhantes. As configurações do navegador do seu dispositivo podem ser alteradas.

Para certos fins, podem ser invocados interesses legítimos ao invés de consentimento. Pode ler mais informação sobre este assunto na nossa Política de Privacidade e Cookies.